Location: Colorado Springs
(38.8340°N, 104.8210°W)
Time: 11:46:34
(UTC-07:00)

Vanguard 3 - Pass Details

Date: 27 October 2017
Orbit: 510 x 3263 km, 33.3° (Epoch: 24 November)

Event Time Altitude Azimuth Distance (km) Brightness Sun altitude
Rises 08:22:31 0° 279° (W) 5,778 10.9 10.3°
Reaches altitude 10° 08:27:25 10° 271° (W) 4,276 10.3 11.1°
Maximum altitude 08:36:23 32° 214° (SW) 2,018 9.2 12.7°
Drops below altitude 10° 08:41:57 10° 152° (SSE) 2,607 10.9 13.6°
Sets 08:44:14 0° 142° (SE) 3,293 11.6 14.0°
